Flag for Germany Weather past 2 weeks in Leutkirch im Allgäu, Baden-Württemberg, Germany

Now
63 °F

Overcast.


Feels Like: 63 °F
Forecast: 52 / 64 °F
Wind: 2 mph from South

Location: Kempten

Current Time: Sep 30, 2014 at 12:24:47 PM

Latest Report: Sep 30, 2014 at 12:00 PM


Visibility: 19 mi

Pressure: 30.27 "Hg

Humidity: 71%

Dew point: 53 °F

Location of Leutkirch im AllgäuLocation

Historic Weather in Leutkirch im Allgäu — Graph

°F

Leutkirch im Allgäu temperature yesterday

Maximum temperature yesterday: 72 °F (at 3:00 PM)
Minimum temperature yesterday: 47 °F (at 7:00 AM)
Average temperature yesterday: 59 °F

Past Weeks' High & Low Weather Summary

 TemperatureHumidityPressure
High75 °F (Sep 19, 3:00 PM)100% (Sep 28, 7:00 AM)30.40 "Hg (Sep 28, 7:00 AM)
Low34 °F (Sep 23, 7:00 AM)38% (Sep 18, 2:00 PM)29.79 "Hg (Sep 17, 4:00 PM)
Average56 °F81%30.10 "Hg
* Reported Sep 15 10:00 AM — Sep 30 10:00 AM, Leutkirch im Allgäu, Weather by CustomWeather, © 2014

Note: Actual official high and low records may vary slightly from our data, if they occured in-between our weather recording intervals... More about our weather records

Advertising

Leutkirch im Allgäu weather history for previous 24 hours

 ConditionsComfort  
Time TempWeatherWind HumidityBarometerVisibility
10:00 AM
Sep 30
57 °FOvercast.1 mph86%30.31 "Hg18 mi
9:00 AM56 °FOvercast.1 mph87%30.30 "Hg19 mi
8:00 AM54 °FOvercast.1 mph91%30.31 "Hg18 mi
7:00 AM54 °FOvercast.1 mph91%30.31 "Hg19 mi
6:00 AM54 °FOvercast.No wind89%30.31 "Hg19 mi
4:00 AM54 °FOvercast.1 mph89%30.31 "Hg19 mi
3:00 AM52 °FPassing clouds.2 mph93%30.32 "Hg11 mi
2:00 AM53 °FPassing clouds.2 mph92%30.32 "Hg16 mi
1:00 AM54 °FOvercast.2 mph93%30.32 "Hg14 mi
12:00 AM54 °FPassing clouds.2 mph93%30.31 "Hg14 mi
11:00 PM
Sep 29
52 °FClear.No wind95%30.32 "Hg11 mi
10:00 PM53 °FClear.No wind93%30.32 "Hg13 mi
9:00 PM55 °FOvercast.No wind90%30.29 "Hg14 mi
8:00 PM58 °FClear.No wind85%30.27 "Hg19 mi
7:00 PM64 °FSunny.1 mph71%30.23 "Hg28 mi
6:00 PM72 °FSunny.1 mph42%30.19 "Hg43 mi
5:00 PM71 °FSunny.1 mph47%30.19 "Hg34 mi
4:00 PM70 °FPassing clouds.2 mph50%30.19 "Hg28 mi
3:00 PM72 °FSunny.2 mph49%30.19 "Hg22 mi
2:00 PM71 °FSunny.2 mph52%30.21 "Hg22 mi
1:00 PM70 °FSunny.2 mph52%30.22 "Hg14 mi
12:00 PM69 °FSunny.1 mph52%30.24 "Hg25 mi
Weather by CustomWeather, © 2014

See weather overviewHow to use our weather pages